Location: Marcé
(47.5801°N, 0.3280°W)
Time: 23:46:55
(UTC+01:00)

S-56A Canister/Altair - Pass Details

Date: 04 December 2021
Orbit: 633 x 2499 km, 38.9° (Epoch: 17 January)

Event Time Altitude Azimuth Distance (km) Brightness Sun altitude
Rises 02:10:16 0° 245° (WSW) 4,889 - -60.1°
Reaches altitude 10° 02:14:12 10° 239° (WSW) 3,582 - -59.7°
Maximum altitude 02:21:57 39° 175° (S) 1,578 - -58.8°
Drops below altitude 10° 02:27:23 10° 108° (ESE) 2,493 - -58.2°
Sets 02:29:39 0° 100° (E) 3,268 - -57.9°
